Weather History for MYNN - December, 2012

Change the Weather History Date:

Wednesday, December 12, 2012

  Actual Average Record
Temperature  
Mean Temperature 76 °F -  
Max Temperature 82 °F 78 °F 86 °F (2002)
Min Temperature 71 °F 63 °F 59 °F (2010)
Cooling Degree Days 12    
Growing Degree Days 26 (Base 50)    
Moisture  
Dew Point 71 °F    
Average Humidity 84    
Maximum Humidity 100    
Minimum Humidity 70    
Precipitation  
Precipitation 0.00 in 0.07 in - ()
Sea Level Pressure  
Sea Level Pressure 30.05 in    
Wind  
Wind Speed 5 mph ()    
Max Wind Speed 13 mph    
Max Gust Speed -    
Visibility 6.6 miles    
Events      
Averages and records for this station are not official NWS values.
T = Trace of Precipitation, MM = Missing Value Source: Averaged Metar Reports

Daily Weather History Graph

Daily Weather History Graph

Search for Another Location

Airport or City:

Trip Planner

Search our weather history database for the weather conditions in past years. The results will help you decide how hot, cold, wet, or windy it might be!

Date:

Astronomy

Dec. 12, 2012 Rise Set
Actual Time 6:45 AM EST 5:21 PM EST
Civil Twilight 6:20 AM EST 5:46 PM EST
Nautical Twilight 5:52 AM EST 6:15 PM EST
Astronomical Twilight 5:24 AM EST 6:43 PM EST
Moon 5:50 AM EST (12/12) 4:55 PM EST (12/12)
Length of Visible Light 11h 26m
Length of Day
10h 36m
Waning Crescent, 1% of the Moon is Illuminated
Dec 12
Waning Crescent
Dec 13
New
Dec 20
First Quarter
Dec 28
Full
Jan 4
Last Quarter

Hourly Weather History & Observations

Time (EST) Temp. Heat Index Dew Point Humidity Pressure Visibility Wind Dir Wind Speed Gust Speed Precip Events Conditions
12:00 AM 71.6 °F - 66.2 °F 83% 29.97 in 6.2 mi East 11.5 mph - N/A   Mostly Cloudy
1:00 AM 71.6 °F - 66.2 °F 83% 29.98 in 6.2 mi Calm Calm - N/A   Mostly Cloudy
2:00 AM 71.6 °F - 68.0 °F 88% 29.98 in 6.2 mi Calm Calm - N/A   Mostly Cloudy
3:00 AM 69.8 °F - 66.2 °F 88% 29.96 in 6.2 mi Calm Calm - N/A   Mostly Cloudy
4:00 AM 68.0 °F - 68.0 °F 100% 29.96 in 6.2 mi Calm Calm - N/A   Scattered Clouds
5:00 AM 71.6 °F - 66.2 °F 83% 29.93 in 6.2 mi East 12.7 mph - N/A   Mostly Cloudy
6:00 AM 75.2 °F - 71.6 °F 89% 30.00 in 6.2 mi SE 2.3 mph - N/A   Scattered Clouds
7:00 AM 73 °F - 71 °F 92% 30.11 in 9 mi Calm Calm - -   Scattered Clouds
7:00 AM 75.2 °F - 73.4 °F 94% 30.07 in 6.2 mi Variable 2.3 mph - N/A   Scattered Clouds
8:00 AM 75.2 °F - 71.6 °F 89% 30.12 in 6.2 mi Variable 2.3 mph - N/A   Mostly Cloudy
9:00 AM 77.0 °F - 69.8 °F 78% 30.00 in 6.2 mi Variable 2.3 mph - N/A   Scattered Clouds
10:00 AM 80 °F - 73 °F 73% 30.15 in 8 mi ESE 11.5 mph - -   Partly Cloudy
10:00 AM 77.0 °F - 69.8 °F 78% 30.00 in 6.2 mi East 9.2 mph - N/A   Scattered Clouds
11:00 AM 80.6 °F 84.6 °F 71.6 °F 74% 30.06 in 6.2 mi SE 11.5 mph - N/A   Mostly Cloudy
12:00 PM 80.6 °F 84.6 °F 71.6 °F 74% 30.03 in 6.2 mi SE 12.7 mph - N/A   Mostly Cloudy
1:00 PM 81 °F - 73 °F 70% 30.09 in 9 mi ESE 11.5 mph - -   Partly Cloudy
1:00 PM 82.4 °F 90.9 °F 77.0 °F 84% 29.99 in 6.2 mi SE 11.5 mph - N/A   Mostly Cloudy
2:00 PM 80.6 °F 84.6 °F 71.6 °F 74% 29.98 in 6.2 mi ESE 12.7 mph - N/A   Mostly Cloudy
3:00 PM 78.8 °F - 69.8 °F 74% 30.06 in 6.2 mi East 9.2 mph - N/A   Mostly Cloudy
4:00 PM 80 °F - 72 °F 72% 30.06 in 8 mi East 9.2 mph - -   Partly Cloudy
4:00 PM 80.6 °F 85.4 °F 73.4 °F 79% 30.06 in 6.2 mi East 9.2 mph - N/A   Mostly Cloudy
5:00 PM 77.0 °F - 69.8 °F 78% 30.06 in 6.2 mi East 4.6 mph - N/A   Mostly Cloudy
6:00 PM 77.0 °F - 71.6 °F 83% 30.07 in 6.2 mi East 3.5 mph - N/A   Mostly Cloudy
7:00 PM 77 °F - 74 °F 87% 30.09 in 8 mi Calm Calm - -   Scattered Clouds
7:00 PM 77.0 °F - 73.4 °F 89% 30.09 in 6.2 mi Calm Calm - N/A   Mostly Cloudy
8:00 PM 75.2 °F - 71.6 °F 89% 30.11 in 6.2 mi Calm Calm - N/A   Mostly Cloudy
9:00 PM 73.4 °F - 69.8 °F 88% 30.11 in 6.2 mi Calm Calm - N/A   Scattered Clouds
10:00 PM 75 °F - 72 °F 89% 30.13 in 8 mi Calm Calm - -   Partly Cloudy
10:00 PM 75.2 °F - 71.6 °F 89% 30.13 in 6.2 mi Calm Calm - N/A   Scattered Clouds
11:00 PM 73.4 °F - 71.6 °F 94% 30.11 in 6.2 mi Calm Calm - N/A   Unknown